Stations météo

réclame
Mon MeteoGroup
Sennybridge, Grande-Bretagne (3507): Température de l'air & dewpoint: 22.10.2020 14:00:00 - 28.10.2020 14:00:00 (GMT)Sennybridge, Grande-Bretagne (3507): Température de l'air -20cm & Température de l'air -100cm: 22.10.2020 14:00:00 - 28.10.2020 14:00:00 (GMT)Sennybridge, Grande-Bretagne (3507): Vitesse du vent & gusts: 22.10.2020 14:00:00 - 28.10.2020 14:00:00 (GMT)Sennybridge, Grande-Bretagne (3507): Direction du vent: 22.10.2020 14:00:00 - 28.10.2020 14:00:00 (GMT)Sennybridge, Grande-Bretagne (3507): reduced air pressure: 22.10.2020 14:00:00 - 28.10.2020 14:00:00 (GMT)Sennybridge, Grande-Bretagne (3507): visibility: 22.10.2020 14:00:00 - 28.10.2020 14:00:00 (GMT)Sennybridge, Grande-Bretagne (3507): Quantités de précipitations: 22.10.2020 14:00:00 - 28.10.2020 14:00:00 (GMT)
Date & Time tt [°C] td [°C] tt -20cm [°C] tt -100cm [°C] ff [km/h] ff [knt] fx [km/h] fx [knt] dd ppp [hPa] vv [km] rr [mm]
28.10.2020 14:00:00 - - - - - - - - - - - -
28.10.2020 13:00:00 6,9 6,4 - - 18 10 46 25 WSW 999,9 19 1,4
28.10.2020 12:00:00 7,6 6,1 - - 24 13 - - SW 999,4 29 0,0
28.10.2020 11:00:00 7,1 6,1 - - 26 14 54 29 SW 999,4 35 1,4
28.10.2020 10:00:00 7,8 6,2 - - 24 13 - - SW 998,7 16 0,0
28.10.2020 09:00:00 6,5 6,2 10,0 10,2 16 9 - - SSW 998,9 13 0,0
28.10.2020 08:00:00 6,0 5,3 - - 11 6 - - WSW 999,0 7 0,6
28.10.2020 07:00:00 5,9 5,0 - - 24 13 48 26 SW 998,1 17 0,8
28.10.2020 06:00:00 6,5 5,6 - - 22 12 - - SW 998,0 14 0,0
28.10.2020 05:00:00 5,6 4,9 - - 11 6 - - SW 997,8 13 0,2
28.10.2020 04:00:00 6,7 5,1 - - 22 12 - - SW 997,5 14 0,0
28.10.2020 03:00:00 6,4 5,4 - - 22 12 - - SW 997,5 17 0,0
28.10.2020 02:00:00 6,3 5,3 - - 22 12 - - SW 997,4 22 0,2
28.10.2020 01:00:00 6,8 5,7 - - 28 15 - - SW 997,1 13 0,0
28.10.2020 00:00:00 6,4 5,5 - - 18 10 - - SW 997,1 12 0,6
27.10.2020 23:00:00 5,9 5,1 - - 16 9 - - SSW 997,5 16 0,4
27.10.2020 22:00:00 6,7 5,3 - - 26 14 - - SW 997,5 16 0,8
27.10.2020 21:00:00 6,7 4,6 - - 22 12 - - WSW 996,9 14 0,0
27.10.2020 20:00:00 6,9 4,7 - - 8 4 - - W 996,6 13 0,0
27.10.2020 19:00:00 7,5 4,9 - - 22 12 - - WSW 996,2 15 0,0
27.10.2020 18:00:00 7,3 5,3 - - 21 11 - - SW 995,5 15 0,0
27.10.2020 17:00:00 7,5 5,7 - - 16 9 - - WSW 994,7 12 0,0
27.10.2020 16:00:00 8,3 5,6 - - 18 10 - - WSW 993,8 15 0,0
27.10.2020 15:00:00 9,8 7,0 - - 15 8 46 25 W 993,1 18 0,0
27.10.2020 14:00:00 9,5 8,1 - - 11 6 50 27 W 992,3 23 1,4
27.10.2020 13:00:00 10,8 9,9 - - 29 16 50 27 WSW 991,3 7 1,6
27.10.2020 12:00:00 10,9 10,5 - - 24 13 55 30 WSW 991,2 2,8 1,0
27.10.2020 11:00:00 10,4 9,8 - - 26 14 - - S 991,0 10 0,2
27.10.2020 10:00:00 9,0 8,5 - - 28 15 - - S 991,9 5 0,0
27.10.2020 09:00:00 8,2 7,5 10,2 10,7 24 13 - - S 993,0 8 0,0
27.10.2020 08:00:00 7,5 7,0 - - 29 16 - - S 994,2 15 0,4
27.10.2020 07:00:00 7,7 7,2 - - 18 10 - - S 995,1 10 0,0
27.10.2020 06:00:00 7,7 7,4 - - 15 8 - - S 996,1 7 0,2
27.10.2020 05:00:00 7,2 6,9 - - 15 8 - - SSW 997,2 11 0,6
27.10.2020 04:00:00 6,8 6,2 - - 15 8 - - SSW 998,1 17 0,0
27.10.2020 03:00:00 6,2 5,9 - - 9 5 - - S 999,1 20 0,0
27.10.2020 02:00:00 5,9 5,6 - - 5 3 - - SW 1000,1 17 0,0
27.10.2020 01:00:00 6,0 5,7 - - 13 7 - - SW 1000,6 15 0,0
27.10.2020 00:00:00 6,4 6,2 - - 13 7 - - WSW 1001,2 15 0,0
26.10.2020 23:00:00 6,5 6,2 - - 15 8 - - WSW 1001,6 13 0,0
26.10.2020 22:00:00 6,5 6,3 - - 13 7 - - WSW 1001,4 13 0,0
26.10.2020 21:00:00 6,8 6,5 - - 9 5 - - WSW 1001,2 9 0,0
26.10.2020 20:00:00 6,5 5,8 - - 11 6 - - WSW 1000,8 35 0,0
26.10.2020 19:00:00 7,4 6,3 - - 9 5 - - W 1000,5 16 0,0
26.10.2020 18:00:00 8,2 7,0 - - 13 7 - - WSW 1000,0 14 0,6
26.10.2020 17:00:00 7,9 6,2 - - 5 3 - - WNW 999,7 8 1,0
26.10.2020 16:00:00 8,8 6,7 - - 4 2 - - WNW 999,5 18 0,0
26.10.2020 15:00:00 9,3 7,1 - - 8 4 - - W 998,9 12 0,0
26.10.2020 14:00:00 8,7 7,3 - - 5 3 - - WNW 998,7 11 0,6
26.10.2020 13:00:00 9,2 7,1 - - 8 4 - - WNW 998,4 13 0,2
26.10.2020 12:00:00 9,4 7,9 - - 5 3 - - WNW 997,8 14 0,0
26.10.2020 11:00:00 8,9 7,0 - - 5 3 - - WNW 997,4 17 0,4
26.10.2020 10:00:00 8,5 7,9 - - 5 3 - - WNW 996,6 7 0,2
26.10.2020 09:00:00 8,0 7,6 10,2 10,7 5 3 - - WNW 995,7 10 0,2
26.10.2020 08:00:00 7,8 7,6 - - 9 5 - - W 994,8 18 0,4
26.10.2020 07:00:00 7,5 7,3 - - 21 11 46 25 WSW 993,5 4,3 2,0
26.10.2020 06:00:00 7,1 7,0 - - 22 12 - - WSW 993,2 5 1,0
26.10.2020 05:00:00 6,6 6,1 - - 21 11 - - WSW 993,4 13 0,0
26.10.2020 04:00:00 6,3 5,9 - - 15 8 - - SW 993,5 13 0,0
26.10.2020 03:00:00 5,9 5,3 - - 16 9 - - SW 993,6 15 0,0
26.10.2020 02:00:00 6,1 5,8 - - 18 10 - - SW 993,7 12 0,6
26.10.2020 01:00:00 5,1 4,8 - - 11 6 - - SSW 993,7 12 0,0
26.10.2020 00:00:00 6,2 5,5 - - 16 9 - - SW 994,1 18 0,0
25.10.2020 23:00:00 5,8 5,3 - - 18 10 - - SW 994,1 35 0,8
25.10.2020 22:00:00 5,7 5,3 - - 13 7 - - SSW 994,2 29 0,0
25.10.2020 21:00:00 5,1 4,9 - - 9 5 - - S 994,5 29 0,0
25.10.2020 20:00:00 5,3 5,0 - - 11 6 - - SSW 994,4 30 0,0
25.10.2020 19:00:00 5,6 5,2 - - 11 6 - - SSW 994,2 30 0,0
25.10.2020 18:00:00 5,9 5,4 - - 11 6 - - SSW 993,8 40 0,0
25.10.2020 17:00:00 6,6 6,0 - - 15 8 - - SSW 993,6 35 1,0
25.10.2020 16:00:00 6,8 6,1 - - 13 7 - - SSW 993,2 45 1,4
25.10.2020 15:00:00 7,7 6,0 - - 13 7 - - SW 992,9 30 0,4
25.10.2020 14:00:00 6,7 6,1 - - 9 5 - - S 993,2 40 1,0
25.10.2020 13:00:00 6,5 6,0 - - 9 5 - - WSW 993,8 6 2,2
25.10.2020 12:00:00 7,0 5,1 - - 15 8 - - SSW 993,4 35 0,2
25.10.2020 11:00:00 6,6 5,4 - - 21 11 - - S 994,0 5 0,4
25.10.2020 10:00:00 7,4 5,6 - - 22 12 - - SSW 993,3 45 0,0
25.10.2020 09:00:00 7,3 6,1 10,5 10,7 26 14 - - SSW 993,2 30 0,2
25.10.2020 08:00:00 6,6 5,2 - - 15 8 - - SSW 993,3 45 0,0
25.10.2020 07:00:00 6,1 4,9 - - 18 10 - - S 992,4 24 0,6
25.10.2020 06:00:00 5,9 5,2 - - 21 11 48 26 SW 993,0 5 1,4
25.10.2020 05:00:00 6,9 5,9 - - 18 10 - - SSW 991,7 8 0,0
25.10.2020 04:00:00 6,3 5,2 - - 24 13 - - SSW 992,2 16 1,0
25.10.2020 03:00:00 6,6 5,8 - - 16 9 - - SSW 992,3 14 1,2
25.10.2020 02:00:00 6,2 5,4 - - 15 8 - - SSW 992,7 21 0,6
25.10.2020 01:00:00 6,3 5,1 - - 18 10 - - WSW 993,1 30 0,6
25.10.2020 00:00:00 - - - - - - - - - - - -
24.10.2020 23:00:00 5,8 5,5 - - 11 6 - - SSW 993,3 30 0,0
24.10.2020 22:00:00 5,6 5,1 - - 13 7 - - SSW 993,4 30 2,6
24.10.2020 21:00:00 7,1 6,5 - - 18 10 - - WSW 993,4 7 2,0
24.10.2020 20:00:00 7,3 7,1 - - 15 8 - - SW 992,8 26 0,0
24.10.2020 19:00:00 7,4 7,1 - - 16 9 - - SW 992,7 30 0,0
24.10.2020 18:00:00 7,8 7,3 - - 18 10 - - SW 992,7 35 0,0
24.10.2020 17:00:00 8,5 8,2 - - 15 8 46 25 WSW 992,1 35 0,8
24.10.2020 16:00:00 9,1 8,5 - - 28 15 63 34 WSW 992,0 4,0 3,2
24.10.2020 15:00:00 10,8 9,9 - - 42 23 63 34 SSW 991,8 14 1,4
24.10.2020 14:00:00 9,9 9,2 - - 24 13 - - SSW 993,3 10 1,8
24.10.2020 13:00:00 10,5 9,8 - - 18 10 - - SSW 994,3 9 0,6
24.10.2020 12:00:00 10,9 10,3 - - 22 12 48 26 SSW 995,7 15 0,2
24.10.2020 11:00:00 11,4 10,7 - - 29 16 57 31 SSW 996,6 9 0,4
24.10.2020 10:00:00 10,9 10,5 - - 29 16 61 33 SW 997,2 9 3,2
24.10.2020 09:00:00 11,7 11,2 10,9 11,2 42 23 65 35 SSW 996,9 3,7 0,0
24.10.2020 08:00:00 11,1 10,5 - - 39 21 61 33 SSW 997,9 4,9 0,2
24.10.2020 07:00:00 10,6 9,7 - - 37 20 59 32 SSW 998,4 12 0,2
24.10.2020 06:00:00 9,9 9,0 - - 35 19 57 31 SSW 999,3 6 0,0
24.10.2020 05:00:00 9,3 8,6 - - 37 20 55 30 SSW 1001,0 5 0,2
24.10.2020 04:00:00 9,3 7,4 - - 31 17 61 33 SSW 1002,2 14 0,0
24.10.2020 03:00:00 8,8 7,3 - - 39 21 63 34 SSW 1003,3 17 0,0
24.10.2020 02:00:00 8,3 7,2 - - 35 19 52 28 SSW 1004,1 3,2 0,0
24.10.2020 01:00:00 8,5 6,4 - - 26 14 - - SSW 1005,0 23 0,0
24.10.2020 00:00:00 7,7 5,5 - - 22 12 - - SSW 1006,4 29 0,0
23.10.2020 23:00:00 6,8 5,0 - - 16 9 - - SSW 1007,5 30 0,0
23.10.2020 22:00:00 7,1 5,6 - - 13 7 - - S 1007,8 25 0,0
23.10.2020 21:00:00 6,6 5,1 - - 13 7 - - SSW 1008,3 25 0,0
23.10.2020 20:00:00 6,4 4,7 - - 9 5 - - SSW 1008,7 20 0,0
23.10.2020 19:00:00 5,8 3,7 - - 8 4 - - S 1009,0 24 0,0
23.10.2020 18:00:00 5,5 3,3 - - 5 3 - - S 1008,8 21 0,0
23.10.2020 17:00:00 7,6 4,8 - - 11 6 - - WSW 1008,2 22 0,0
23.10.2020 16:00:00 8,5 4,3 - - 9 5 - - WSW 1007,7 28 0,0
23.10.2020 15:00:00 9,8 4,1 - - 5 3 - - W 1007,3 30 0,0
23.10.2020 14:00:00 9,7 5,3 - - 8 4 - - W 1007,0 40 0,0
23.10.2020 13:00:00 9,9 6,2 - - 8 4 - - W 1006,3 16 0,2
23.10.2020 12:00:00 9,3 7,9 - - 8 4 - - WNW 1006,0 40 0,0
23.10.2020 11:00:00 9,4 9,1 - - 22 12 - - WSW 1005,2 2,0 0,6
23.10.2020 10:00:00 8,8 8,3 - - 26 14 - - SSW 1005,4 7 0,8
23.10.2020 09:00:00 8,7 7,6 11,2 11,0 21 11 - - SW 1005,4 23 0,0
23.10.2020 08:00:00 7,9 7,7 - - 15 8 - - SSW 1005,6 23 0,0
23.10.2020 07:00:00 7,3 7,2 - - 13 7 - - SSW 1005,8 12 0,0
23.10.2020 06:00:00 7,6 7,5 - - 11 6 - - SW 1006,0 3,0 0,2
23.10.2020 05:00:00 7,3 7,1 - - 11 6 - - SSW 1005,9 6 0,0
23.10.2020 04:00:00 6,6 6,5 - - 8 4 - - SSW 1006,4 3,8 0,2
23.10.2020 03:00:00 5,9 5,3 - - 4 2 - - SW 1007,2 3,5 0,0
23.10.2020 02:00:00 6,1 5,1 - - 2 1 - - WSW 1007,8 22 0,0
23.10.2020 01:00:00 6,0 5,0 - - 0 0 - - N 1008,4 5 0,0
23.10.2020 00:00:00 6,1 4,5 - - 2 1 - - WSW 1008,8 40 0,0
22.10.2020 23:00:00 5,8 4,4 - - 4 2 - - SSW 1009,2 30 0,0
22.10.2020 22:00:00 5,4 3,7 - - 4 2 - - S 1009,6 40 0,0
22.10.2020 21:00:00 6,7 4,4 - - 5 3 - - S 1010,0 40 0,0
22.10.2020 20:00:00 6,6 4,9 - - 5 3 - - S 1010,0 35 0,0
22.10.2020 19:00:00 5,9 4,5 - - 5 3 - - SSW 1010,1 27 0,0
22.10.2020 18:00:00 6,3 4,3 - - 5 3 - - SSW 1009,8 35 0,0
22.10.2020 17:00:00 7,4 4,3 - - 9 5 - - WSW 1009,5 29 0,0
22.10.2020 16:00:00 8,4 4,8 - - 15 8 - - WSW 1009,1 45 0,0
22.10.2020 15:00:00 8,6 4,8 - - 11 6 - - SW 1008,8 45 0,0
22.10.2020 14:00:00 9,2 5,2 - - 9 5 - - W 1008,3 17 0,0

tt = Température de l'air
td = dewpoint
tt -20cm = Température de l'air -20cm
tt -100cm = Température de l'air -100cm
ff = Vitesse du vent
fx = gusts
dd = Direction du vent
ppp = reduced air pressure
vv = visibility
rr = Quantités de précipitations

stations d'obs. à proximité